Orbital Elements at Epoch 2459000.5 (2020-May-31.0) TDB
Reference: JPL 23 (heliocentric ecliptic J2000)
Element | Value | Uncertainty (1-sigma) | Units |
e | .09272675583557244 | 4.8946e-08 | |
a | 2.52109329850882 | 1.4117e-08 | au |
q | 2.287320495779295 | 1.2513e-07 | au |
i | 12.45096386562199 | 3.4046e-06 | deg |
node | 145.208658448382 | 2.5416e-05 | deg |
peri | 301.9337351557363 | 3.3932e-05 | deg |
M | 27.74272072081076 | 2.1642e-05 | deg |
tp | 2458887.824796000902 (2020-Feb-08.32479600) | 8.8067e-05 | TDB |
period | 1462.115913139251 4.00 | 1.228e-05 3.362e-08 | d yr |
n | .2462185089190763 | 2.068e-09 | deg/d |
Q | 2.754866101238345 | 1.5426e-08 | au |
|
| | Orbit Determination Parameters
Additional Information
|